TimePST,TemperatureF,Dew PointF,Humidity,Sea Level PressureIn,VisibilityMPH,Wind Direction,Wind SpeedMPH,Gust SpeedMPH,PrecipitationIn,Events,Conditions,WindDirDegrees,DateUTC
12:54 AM,33.1,30.9,92,30.09,10.0,Calm,Calm,-,N/A,,Clear,0,2013-11-24 08:54:00
1:54 AM,33.1,30.0,89,30.10,10.0,Calm,Calm,-,N/A,,Clear,0,2013-11-24 09:54:00
2:54 AM,32.0,28.9,88,30.11,10.0,Calm,Calm,-,N/A,,Clear,0,2013-11-24 10:54:00
3:54 AM,36.0,30.0,79,30.10,10.0,North,5.8,-,N/A,,Clear,360,2013-11-24 11:54:00
4:54 AM,35.1,30.0,82,30.12,10.0,Calm,Calm,-,N/A,,Clear,0,2013-11-24 12:54:00
5:54 AM,34.0,28.9,82,30.13,10.0,North,4.6,-,N/A,,Clear,10,2013-11-24 13:54:00
6:54 AM,33.1,28.9,85,30.15,10.0,NE,3.5,-,N/A,,Clear,40,2013-11-24 14:54:00
7:54 AM,37.0,32.0,82,30.17,10.0,North,3.5,-,N/A,,Clear,360,2013-11-24 15:54:00
8:54 AM,45.0,35.1,68,30.19,10.0,North,3.5,-,N/A,,Clear,10,2013-11-24 16:54:00
9:54 AM,52.0,35.1,53,30.19,10.0,Calm,Calm,-,N/A,,Clear,0,2013-11-24 17:54:00
10:54 AM,55.9,35.1,45,30.19,10.0,WSW,4.6,-,N/A,,Clear,250,2013-11-24 18:54:00
11:54 AM,59.0,37.0,44,30.18,10.0,SSW,5.8,-,N/A,,Clear,210,2013-11-24 19:54:00
12:54 PM,61.0,42.1,50,30.16,9.0,Calm,Calm,-,N/A,,Clear,0,2013-11-24 20:54:00
1:54 PM,62.1,41.0,46,30.15,8.0,East,6.9,-,N/A,,Clear,90,2013-11-24 21:54:00
2:54 PM,62.1,41.0,46,30.15,8.0,East,6.9,-,N/A,,Clear,90,2013-11-24 22:54:00
3:54 PM,61.0,42.1,50,30.16,7.0,ESE,8.1,-,N/A,,Clear,120,2013-11-24 23:54:00
4:54 PM,54.0,39.9,59,30.16,7.0,SSE,3.5,-,N/A,,Clear,160,2013-11-25 00:54:00
5:54 PM,52.0,41.0,66,30.18,8.0,ENE,4.6,-,N/A,,Clear,70,2013-11-25 01:54:00
6:54 PM,46.9,39.0,74,30.19,8.0,Calm,Calm,-,N/A,,Clear,0,2013-11-25 02:54:00
7:54 PM,44.1,39.0,82,30.21,6.0,Calm,Calm,-,N/A,,Haze,0,2013-11-25 03:54:00
8:54 PM,39.9,37.9,93,30.22,6.0,Calm,Calm,-,N/A,,Clear,0,2013-11-25 04:54:00
9:54 PM,39.0,36.0,89,30.22,6.0,Calm,Calm,-,N/A,,Clear,0,2013-11-25 05:54:00
10:54 PM,37.0,35.1,93,30.23,4.0,Calm,Calm,-,N/A,,Clear,0,2013-11-25 06:54:00
11:54 PM,37.9,36.0,93,30.24,5.0,NE,3.5,-,N/A,,Clear,40,2013-11-25 07:54:00